Temperature
24 21 20 21 22 22 23 23 22 23 24 24 22 21 21 21 21 21 21 20 20 20 20 20 20 20 19 19 19 18 18 18 17 17 17 16 16 16 16 16 16 15 15 15
21 21 23 24 24 24 23 23 23 23 24 24 22 21 21 21 21 21 21 20 20 20 20 20 20 19 19 19 18 18 18 18 17 17 17 16 16 16 16 15 15 15 15 15
22 23 25 25 24 24 24 23 23 23 23 23 22 21 20 20 21 20 20 20 20 20 20 19 19 19 19 18 18 18 18 17 17 17 16 16 16 15 15 15 15 15 14 14
23 24 25 24 24 24 23 24 24 24 22 20 21 19 19 19 19 19 19 19 19 19 20 19 19 19 19 18 18 18 18 17 17 16 16 16 16 15 15 15 15 14 14 14
23 24 24 24 24 24 24 24 23 23 21 20 20 19 18 18 19 19 19 19 19 19 19 19 19 19 18 18 18 17 17 17 16 16 16 16 15 15 15 15 14 14 14 14
23 24 24 24 24 24 23 22 21 19 18 19 19 19 18 17 18 18 18 19 19 19 19 19 19 18 18 18 17 17 17 17 16 16 16 15 15 15 15 14 14 14 14 14
21 23 23 24 23 22 21 19 18 18 17 18 19 18 17 18 18 18 18 18 18 18 18 18 18 18 18 18 17 17 16 16 16 16 15 15 15 15 14 14 14 14 13 13
19 20 22 23 22 21 21 19 17 17 17 17 18 18 17 18 18 18 18 18 18 18 18 18 18 17 17 17 17 16 16 16 15 15 15 15 15 14 14 14 14 13 13 13
19 19 22 23 23 22 20 19 18 17 17 17 17 18 18 18 17 17 17 17 17 17 17 17 17 17 17 17 16 16 16 16 15 15 15 14 14 14 14 14 13 13 13 13
19 19 20 22 22 21 20 19 16 16 16 16 17 17 16 16 16 16 16 16 16 16 16 16 17 17 16 16 16 16 16 15 15 15 15 14 14 14 13 13 13 13 13 12
18 17 18 19 19 19 19 18 16 15 15 16 16 16 17 16 16 15 15 16 16 16 16 16 16 16 16 15 15 15 15 15 15 14 14 14 14 13 13 13 13 13 12 12
17 15 16 17 19 20 19 19 16 16 16 15 15 15 17 16 15 16 15 16 16 16 16 16 16 16 15 15 15 15 15 15 15 14 14 14 13 13 13 13 13 12 12 12
17 15 15 16 17 18 18 19 18 16 14 14 15 16 16 15 15 16 15 15 16 16 16 16 15 15 15 15 15 14 14 15 14 14 14 14 13 13 13 13 13 12 12 12
18 15 15 15 16 17 17 18 18 16 14 15 15 16 15 15 14 15 15 15 15 15 15 15 15 15 15 14 14 14 14 14 14 14 14 13 13 13 13 13 12 12 12 12
15 15 16 16 17 18 18 18 18 17 16 15 15 15 15 14 14 15 15 15 15 15 15 15 15 15 14 14 14 14 14 14 14 14 14 13 13 13 12 12 12 12 12 12
14 15 16 16 17 17 17 17 17 17 17 16 16 15 15 15 15 15 15 14 14 14 14 14 14 14 14 14 14 14 14 14 13 13 13 13 13 12 12 12 12 12 12 12
14 14 14 14 16 16 15 16 16 17 16 16 15 15 14 14 14 14 14 14 14 14 14 14 14 14 14 14 14 14 14 14 13 13 13 13 13 12 12 12 12 12 12 12
14 14 12 13 14 15 15 16 17 16 15 15 15 14 14 14 14 14 15 14 14 14 14 14 14 14 14 14 14 14 14 13 13 13 13 13 12 12 12 12 12 12 12 12
14 13 13 13 13 14 16 16 16 15 15 14 14 14 14 14 14 14 14 14 14 14 14 14 14 14 14 14 14 14 13 13 13 13 13 13 12 12 12 12 12 12 12 12
14 13 13 13 14 14 15 16 17 15 14 14 14 13 13 13 12 13 14 14 14 14 14 14 14 14 14 14 13 13 13 13 13 13 13 13 12 12 12 12 12 12 12 12
14 13 13 12 13 14 15 16 16 14 13 14 14 14 14 13 13 14 14 14 14 14 14 14 14 14 14 13 13 13 13 13 13 13 13 13 12 12 12 12 12 12 12 12
13 13 12 12 13 14 15 15 14 14 15 15 14 14 14 14 14 14 14 14 14 14 14 14 14 14 14 13 13 13 13 13 13 13 13 13 12 12 12 12 12 12 12 12
13 12 12 12 12 14 15 15 15 15 15 14 14 14 14 14 13 13 14 14 14 14 13 13 13 13 13 13 13 13 13 13 13 13 13 13 12 12 12 12 12 12 12 12
13 13 12 12 13 14 15 15 15 15 15 15 14 14 14 14 13 13 13 13 13 14 14 13 13 13 13 13 13 13 13 13 13 13 13 12 12 12 12 12 12 12 12 12
12 12 12 12 13 14 15 15 15 15 15 15 14 14 14 14 13 13 13 13 13 14 14 13 13 13 13 13 13 13 13 13 13 13 13 13 12 12 12 12 12 12 12 12
12 12 11 11 13 12 14 15 15 14 15 15 14 14 14 14 14 14 14 13 13 14 14 14 13 13 14 13 13 13 13 13 13 13 13 13 13 12 12 12 12 12 12 12
Wind_Speed
2 2 5 10 8 9 7 7 8 9 6 1 1 2 3 1 3 5 5 5 6 6 5 6 6 7 7 7 7 7 7 6 6 4 4 3 3 2 2 2 3 4 4 3
4 6 13 9 7 5 5 6 8 8 6 1 0 1 1 1 2 5 6 6 6 5 4 5 6 6 7 7 7 8 7 7 6 5 4 3 3 2 2 2 2 3 4 4
6 8 6 4 5 5 5 5 7 7 6 3 2 4 4 4 1 1 3 4 5 6 6 5 6 6 7 7 7 7 7 6 6 5 3 2 2 1 1 0 1 2 3 3
5 6 4 5 5 3 5 7 7 5 3 4 2 2 5 4 4 2 1 2 2 4 5 4 5 5 6 6 6 6 6 5 5 6 5 4 3 2 2 2 1 1 1 2
5 4 4 4 5 4 5 7 6 3 1 2 4 1 5 4 4 4 1 2 2 4 6 6 6 7 6 6 6 5 5 4 4 4 5 4 3 2 1 1 1 1 0 1
4 3 2 3 5 4 5 7 8 6 5 3 4 1 4 3 3 4 2 0 1 2 3 4 4 5 5 6 6 5 6 4 3 4 4 5 5 4 3 2 1 1 1 1
8 7 5 4 7 9 10 8 6 7 5 3 3 1 3 4 4 3 2 1 1 0 2 4 4 4 5 5 5 5 5 4 5 5 4 5 5 5 4 3 3 2 1 1
6 7 7 6 3 3 4 6 3 2 3 5 4 1 3 4 4 5 3 1 2 2 1 3 4 4 4 5 5 5 5 4 5 5 5 5 4 3 3 3 2 2 2 3
3 6 7 6 5 3 3 2 3 4 1 2 3 2 3 7 8 7 6 6 5 4 1 2 2 3 3 4 5 5 5 4 4 5 4 3 3 3 3 3 2 2 2 3
2 4 7 7 6 7 3 1 5 4 1 2 4 2 3 7 6 6 5 5 4 4 3 2 1 2 2 3 3 4 4 4 3 4 4 4 3 4 4 3 3 3 3 3
3 1 7 6 5 5 5 5 4 2 2 2 3 4 2 4 4 3 3 3 3 2 2 0 1 2 3 3 3 3 3 3 3 3 4 4 3 3 3 3 3 3 3 3
3 3 3 5 6 3 2 2 3 1 2 2 2 5 4 3 4 3 3 2 2 2 0 1 1 2 3 2 2 2 3 3 3 3 3 3 3 3 3 3 3 3 3 3
3 4 4 9 8 8 6 5 3 1 2 1 2 5 5 6 7 5 3 3 2 2 2 1 1 2 3 3 2 2 3 3 3 3 3 2 2 3 3 3 2 2 2 3
3 3 4 4 7 6 7 9 6 2 1 2 4 6 6 7 6 5 4 2 2 2 1 1 1 1 2 2 3 3 2 3 3 3 3 3 3 3 3 3 3 2 3 3
4 1 2 5 6 5 7 7 6 3 2 3 5 5 6 7 5 4 3 2 2 2 1 0 0 1 1 2 1 1 2 2 3 3 3 3 3 3 2 2 2 2 2 3
3 0 3 5 6 6 7 7 6 5 3 2 3 4 5 6 4 4 2 2 3 3 2 2 1 1 1 2 2 2 2 2 3 3 3 2 2 2 2 2 2 2 1 2
1 1 1 4 7 5 4 5 5 3 2 1 2 5 6 6 5 4 1 1 2 3 3 2 2 1 1 2 3 3 2 2 2 2 3 2 2 2 2 2 1 1 1 1
3 2 2 2 5 2 5 3 3 3 3 4 4 5 4 4 5 3 1 1 2 3 2 2 2 2 2 1 1 2 2 3 2 2 2 2 1 1 1 1 1 1 1 0
5 5 2 1 2 5 4 4 3 3 3 3 4 5 6 5 5 3 3 3 2 2 2 3 2 2 2 1 2 3 3 3 2 2 2 2 2 2 2 2 1 1 0 0
3 4 3 1 1 3 4 5 4 1 2 4 4 5 4 4 3 4 5 5 4 4 3 2 1 0 1 1 2 3 3 3 3 2 2 2 2 3 2 2 2 1 1 1
4 2 0 2 3 5 4 5 4 2 6 7 5 4 3 3 4 5 5 4 4 4 4 2 1 0 1 1 2 3 3 3 4 3 2 2 2 2 2 2 1 1 1 0
1 0 1 1 2 6 5 4 1 5 5 4 4 4 4 4 3 3 3 3 4 4 4 2 1 1 1 1 3 3 2 3 2 2 2 2 1 2 1 2 1 0 1 0
1 4 4 5 6 6 4 4 5 4 4 4 3 4 3 3 2 3 3 3 4 3 3 2 1 1 1 1 3 3 3 2 2 2 2 2 1 1 1 2 2 0 0 1
4 0 1 4 6 7 6 4 4 3 3 4 3 4 3 2 2 3 3 3 3 3 3 2 1 1 2 2 2 4 3 2 2 2 2 2 1 1 1 1 1 1 1 2
5 3 3 5 7 7 5 5 6 5 3 2 2 3 2 2 2 3 3 4 4 3 3 2 2 2 3 3 3 3 3 3 2 2 2 2 2 1 1 1 1 2 3 4
4 5 4 7 7 5 9 8 7 5 4 3 3 4 3 3 3 3 3 3 4 3 2 2 2 2 2 2 3 3 3 3 3 2 1 1 1 2 2 1 2 3 4 5
Wind_Direction
309 63 264 255 232 229 256 280 288 282 281 344 299 241 256 222 143 153 153 153 156 172 166 152 154 153 152 151 148 155 157 160 155 154 157 159 171 174 174 187 180 172 175 180
359 274 253 259 269 263 264 289 297 301 305 348 136 342 319 38 177 177 168 159 159 157 154 156 154 158 162 163 162 160 161 165 166 169 171 168 164 175 179 186 190 192 188 182
223 252 279 300 300 305 291 296 288 285 314 357 67 346 344 344 15 106 130 142 160 160 161 170 168 168 167 172 170 168 166 166 168 161 141 122 92 74 76 148 227 224 194 187
262 272 316 336 326 321 299 299 298 300 348 311 27 294 314 332 11 41 84 111 141 167 160 175 172 182 182 178 168 158 162 164 165 156 153 153 165 185 212 205 211 215 170 176
295 313 348 343 318 345 297 317 334 332 30 352 355 83 305 347 354 346 28 114 148 166 174 177 177 178 182 171 164 160 149 157 166 160 158 156 160 185 183 149 137 167 204 187
293 317 19 315 313 352 344 359 9 30 57 20 326 65 305 317 308 323 337 142 129 149 169 162 165 156 157 156 156 157 153 158 167 160 160 169 178 175 159 156 157 181 215 255
332 335 349 1 3 357 27 43 16 1 7 283 311 59 273 311 349 353 356 327 341 260 147 142 145 153 162 160 158 157 158 168 172 167 176 185 183 175 175 185 191 183 191 226
355 323 340 355 358 325 0 92 119 254 267 289 335 273 284 344 4 2 19 26 50 36 80 142 167 160 159 165 162 160 167 178 182 175 180 184 174 174 183 188 192 194 203 216
0 298 317 340 349 55 20 5 171 151 298 321 312 301 322 353 4 1 11 24 23 0 29 91 125 151 155 166 174 166 166 176 181 175 166 170 177 178 181 183 181 199 217 223
71 301 314 335 13 21 83 69 59 61 16 307 308 306 301 323 327 339 1 9 16 18 35 73 119 166 169 176 171 157 162 166 172 173 169 177 187 193 185 176 195 211 224 228
63 31 318 355 20 348 2 26 58 83 162 174 291 287 280 279 288 311 326 343 351 25 54 5 205 172 164 172 157 159 164 153 159 175 178 173 180 182 163 184 216 228 232 230
25 93 314 295 290 325 35 49 104 116 269 200 216 269 318 305 314 315 329 331 333 347 300 278 228 160 156 169 163 166 172 161 171 175 174 178 179 164 176 206 223 224 229 232
33 77 5 340 342 355 357 353 352 151 131 187 218 276 331 342 330 321 322 321 327 355 11 30 66 149 170 173 174 173 176 173 169 155 147 146 173 174 197 215 223 224 228 240
63 99 157 227 264 293 317 331 344 41 71 265 253 280 317 324 320 322 322 315 353 19 22 30 28 185 172 173 182 186 190 180 165 164 160 166 195 203 199 206 222 235 238 243
67 84 243 255 279 308 319 326 339 343 258 237 274 278 291 294 295 302 319 332 1 8 346 224 238 244 169 158 162 189 202 183 160 159 169 193 208 212 191 208 230 241 246 242
48 189 319 307 305 327 332 334 329 321 309 294 308 292 295 307 327 334 328 344 352 339 327 348 17 40 149 170 174 187 195 185 158 165 182 194 192 211 203 220 234 245 255 261
306 139 12 297 310 337 334 327 329 327 343 342 293 289 318 341 332 311 294 18 358 357 9 7 325 299 227 207 181 183 189 161 159 175 182 188 189 185 202 220 191 221 252 279
183 134 144 288 355 310 257 304 341 346 20 29 355 326 328 319 306 281 241 56 356 346 342 332 314 291 253 245 200 178 160 147 164 180 191 192 164 157 165 146 167 232 234 215
162 149 149 156 269 277 298 337 334 311 302 8 357 343 342 350 3 348 346 355 319 291 287 285 279 252 234 215 167 144 143 144 155 176 182 189 169 152 148 154 206 232 190 257
73 101 131 171 234 259 274 304 313 345 297 325 351 338 327 0 354 299 316 326 315 311 310 313 309 330 195 214 152 143 154 156 180 196 192 170 157 152 171 193 215 227 179 245
10 14 140 213 236 260 277 305 1 32 277 297 308 305 296 273 243 257 292 307 306 307 309 321 344 358 227 199 148 153 156 186 205 190 158 136 151 171 195 204 227 198 137 11
216 226 276 225 253 266 310 359 23 248 264 273 284 283 288 276 268 276 290 296 308 314 316 324 345 304 259 177 145 151 188 217 192 156 148 154 174 210 191 162 166 144 127 21
221 189 203 209 230 255 284 261 255 249 271 277 274 278 279 285 289 290 288 289 294 296 300 300 268 277 273 195 157 174 220 206 164 162 176 187 201 243 178 164 186 213 245 264
293 316 212 269 267 278 290 292 300 293 277 279 274 285 280 271 279 290 283 287 290 290 283 274 252 229 264 246 203 200 213 186 163 183 198 191 190 262 287 247 202 189 227 242
258 292 283 272 280 306 300 301 305 310 298 295 297 297 280 254 266 259 265 267 271 275 271 248 225 235 248 238 216 214 205 176 174 194 205 203 206 220 243 259 250 228 236 223
228 216 223 249 256 258 274 279 291 297 287 274 286 309 302 260 248 258 258 258 255 263 255 251 262 256 251 227 218 223 209 181 175 190 213 212 226 243 232 225 306 316 271 265
Height
1498 1504 1508 1502 1499 1499 1498 1499 1499 1490 1479 1481 1486 1485 1482 1479 1480 1480 1481 1482 1483 1486 1487 1489 1490 1491 1492 1493 1494 1496 1496 1498 1499 1499 1500 1501 1502 1503 1503 1504 1504 1505 1505 1505
1505 1507 1495 1491 1492 1493 1494 1498 1496 1486 1477 1481 1486 1487 1483 1481 1481 1480 1480 1481 1482 1484 1486 1487 1488 1490 1491 1492 1493 1494 1495 1496 1497 1497 1498 1499 1500 1501 1502 1502 1502 1502 1502 1502
1506 1497 1488 1490 1491 1492 1492 1495 1492 1489 1481 1480 1486 1493 1488 1484 1482 1481 1482 1482 1483 1483 1484 1486 1487 1488 1489 1491 1492 1493 1494 1495 1496 1496 1497 1498 1499 1499 1500 1500 1500 1500 1500 1500
1497 1490 1489 1490 1490 1489 1496 1484 1482 1483 1491 1498 1492 1509 1495 1488 1485 1483 1482 1482 1482 1483 1484 1484 1485 1487 1488 1489 1491 1492 1493 1493 1494 1495 1496 1496 1497 1497 1497 1497 1498 1498 1498 1498
1498 1490 1491 1493 1490 1486 1488 1480 1480 1482 1490 1500 1497 1506 1504 1491 1490 1486 1483 1482 1482 1483 1483 1483 1484 1485 1486 1488 1489 1490 1491 1492 1492 1493 1494 1495 1495 1496 1496 1496 1496 1496 1496 1496
1494 1489 1490 1490 1486 1484 1482 1483 1485 1491 1500 1513 1505 1510 1511 1500 1493 1488 1485 1483 1482 1482 1482 1483 1483 1484 1485 1486 1487 1488 1489 1490 1490 1491 1492 1493 1493 1493 1494 1494 1494 1494 1494 1494
1503 1495 1490 1488 1489 1487 1489 1503 1518 1519 1524 1521 1505 1508 1509 1495 1492 1490 1488 1485 1484 1483 1481 1482 1482 1483 1484 1485 1486 1487 1488 1488 1489 1490 1491 1491 1491 1491 1491 1492 1492 1491 1491 1492
1518 1514 1498 1492 1494 1497 1497 1505 1526 1534 1531 1522 1508 1511 1505 1495 1491 1489 1487 1485 1483 1482 1481 1481 1481 1483 1483 1484 1484 1485 1486 1486 1487 1488 1489 1489 1489 1490 1490 1490 1490 1490 1490 1490
1521 1516 1498 1494 1492 1493 1501 1507 1507 1520 1521 1525 1517 1508 1500 1493 1491 1489 1487 1484 1483 1483 1481 1481 1481 1482 1482 1483 1484 1484 1484 1485 1485 1486 1486 1487 1487 1488 1488 1488 1488 1488 1488 1488
1513 1518 1505 1498 1495 1495 1499 1503 1513 1523 1531 1532 1521 1515 1512 1501 1496 1491 1488 1486 1484 1484 1482 1481 1481 1481 1482 1482 1483 1483 1483 1483 1484 1484 1485 1485 1485 1486 1486 1486 1487 1486 1486 1486
1512 1521 1515 1507 1507 1508 1504 1507 1513 1522 1524 1531 1533 1523 1502 1499 1495 1493 1490 1487 1485 1484 1483 1482 1481 1481 1480 1481 1482 1482 1482 1482 1482 1483 1483 1484 1483 1483 1483 1485 1485 1484 1484 1484
1513 1522 1526 1515 1505 1500 1502 1506 1513 1525 1525 1524 1529 1523 1498 1496 1493 1491 1490 1487 1485 1483 1482 1481 1480 1480 1480 1479 1479 1481 1481 1481 1481 1481 1481 1482 1482 1482 1482 1482 1482 1482 1482 1482
1514 1525 1534 1526 1519 1509 1507 1504 1506 1513 1521 1524 1526 1519 1498 1495 1494 1492 1489 1486 1484 1482 1480 1479 1479 1478 1478 1478 1479 1480 1480 1480 1480 1480 1480 1480 1480 1480 1480 1480 1480 1480 1480 1480
1511 1523 1532 1536 1529 1518 1513 1507 1505 1511 1522 1521 1516 1510 1502 1498 1494 1491 1489 1486 1483 1481 1480 1479 1478 1477 1477 1478 1478 1479 1479 1479 1479 1479 1479 1478 1479 1479 1479 1479 1479 1479 1478 1478
1515 1523 1521 1519 1514 1511 1510 1508 1505 1508 1510 1514 1510 1506 1502 1497 1494 1491 1488 1486 1483 1481 1480 1478 1477 1476 1476 1477 1477 1477 1477 1477 1478 1477 1477 1477 1477 1478 1478 1478 1477 1477 1477 1477
1517 1522 1520 1519 1511 1510 1510 1506 1504 1504 1503 1505 1504 1503 1497 1494 1492 1490 1488 1485 1483 1481 1479 1478 1477 1476 1475 1476 1476 1476 1476 1477 1477 1476 1476 1476 1476 1476 1476 1476 1476 1476 1476 1475
1520 1522 1526 1527 1515 1512 1517 1509 1505 1504 1502 1503 1506 1503 1496 1494 1491 1489 1487 1485 1483 1481 1479 1478 1477 1476 1475 1475 1475 1475 1476 1476 1476 1476 1475 1475 1475 1475 1475 1476 1476 1475 1475 1474
1518 1522 1528 1529 1525 1528 1518 1504 1503 1503 1503 1501 1500 1497 1495 1493 1490 1488 1487 1485 1483 1481 1480 1478 1477 1476 1475 1474 1475 1475 1475 1475 1475 1475 1475 1475 1474 1474 1475 1475 1475 1475 1474 1473
1511 1519 1526 1531 1530 1523 1511 1504 1503 1504 1504 1500 1499 1496 1494 1492 1489 1488 1487 1485 1484 1481 1480 1478 1477 1476 1475 1474 1474 1474 1475 1475 1475 1475 1475 1475 1475 1475 1475 1475 1474 1474 1473 1472
1512 1516 1525 1528 1529 1527 1515 1503 1499 1502 1505 1499 1497 1496 1494 1491 1493 1490 1486 1485 1483 1481 1479 1477 1476 1475 1474 1474 1474 1474 1474 1475 1475 1475 1475 1475 1475 1475 1475 1474 1474 1474 1473 1472
1520 1522 1525 1528 1527 1519 1507 1502 1500 1510 1509 1498 1496 1494 1492 1491 1490 1488 1485 1483 1482 1479 1478 1477 1476 1475 1474 1474 1474 1474 1474 1474 1474 1475 1474 1474 1474 1474 1474 1474 1473 1473 1472 1471
1523 1525 1526 1526 1527 1521 1504 1502 1505 1505 1498 1496 1494 1492 1490 1488 1486 1485 1483 1482 1480 1478 1477 1476 1475 1474 1474 1473 1473 1473 1473 1474 1474 1474 1474 1474 1474 1474 1474 1474 1473 1472 1471 1470
1519 1520 1521 1521 1518 1507 1503 1502 1500 1498 1496 1494 1491 1489 1488 1486 1484 1483 1482 1481 1479 1478 1476 1475 1474 1473 1473 1473 1473 1472 1473 1473 1473 1473 1473 1473 1473 1474 1473 1473 1472 1472 1471 1469
1516 1513 1514 1513 1507 1503 1501 1499 1498 1496 1494 1492 1490 1488 1485 1484 1483 1482 1481 1479 1478 1477 1475 1474 1473 1472 1472 1472 1472 1472 1472 1472 1472 1472 1473 1473 1473 1473 1472 1472 1471 1471 1470 1468
1516 1513 1513 1510 1504 1501 1497 1497 1495 1493 1491 1489 1487 1486 1484 1482 1481 1480 1479 1478 1477 1476 1475 1474 1473 1472 1471 1471 1471 1471 1472 1472 1472 1472 1472 1472 1472 1471 1471 1471 1470 1469 1468 1467
1510 1510 1511 1508 1502 1501 1497 1494 1493 1491 1488 1486 1485 1483 1482 1481 1479 1478 1477 1477 1475 1474 1474 1473 1472 1471 1471 1471 1471 1471 1471 1471 1471 1471 1471 1471 1471 1470 1470 1469 1469 1468 1467 1466